QPF
0.02 0.03 0.06 0.11 0.09 0.09 0.06 0.07 0.08 0.08 0.05 0.03 0.02 0.01 0.01 0.01 0.01 0.01 0.01 0.01 0.01 0.02 0.01 0.00 0.00 0.00 0.01 0.01 0.01 0.01 0.01 0.01 0.02 0.02 0.01 0.01 0.01 0.01 0.01 0.01 0.01 0.01 0.01
0.03 0.09 0.08 0.07 0.05 0.05 0.06 0.12 0.17 0.12 0.07 0.06 0.04 0.03 0.03 0.03 0.02 0.02 0.01 0.01 0.01 0.01 0.01 0.01 0.01 0.01 0.01 0.01 0.01 0.01 0.01 0.01 0.02 0.02 0.02 0.02 0.02 0.02 0.02 0.02 0.02 0.02 0.02
0.02 0.04 0.06 0.04 0.02 0.03 0.04 0.07 0.12 0.17 0.14 0.12 0.08 0.05 0.05 0.05 0.04 0.03 0.02 0.02 0.01 0.01 0.01 0.01 0.01 0.01 0.01 0.01 0.01 0.01 0.01 0.02 0.02 0.02 0.02 0.02 0.02 0.02 0.02 0.02 0.02 0.03 0.02
0.03 0.02 0.03 0.03 0.03 0.03 0.05 0.07 0.09 0.12 0.16 0.12 0.08 0.07 0.06 0.06 0.05 0.04 0.03 0.02 0.01 0.01 0.01 0.01 0.01 0.00 0.00 0.00 0.00 0.00 0.01 0.01 0.02 0.01 0.01 0.02 0.01 0.01 0.01 0.01 0.01 0.01 0.01
0.04 0.03 0.03 0.03 0.03 0.03 0.05 0.06 0.07 0.08 0.09 0.09 0.06 0.05 0.05 0.04 0.04 0.03 0.02 0.02 0.01 0.01 0.01 0.01 0.00 0.00 0.01 0.00 0.00 0.00 0.00 0.00 0.01 0.00 0.00 0.00 0.00 0.00 0.00 0.00 0.00 0.00 0.01
0.06 0.04 0.04 0.03 0.03 0.03 0.03 0.05 0.05 0.06 0.06 0.06 0.05 0.04 0.04 0.03 0.02 0.01 0.01 0.01 0.01 0.01 0.01 0.01 0.01 0.01 0.01 0.01 0.00 0.00 0.00 0.00 0.00 0.00 0.00 0.00 0.00 0.00 0.00 0.00 0.00 0.00 0.00
0.08 0.05 0.05 0.04 0.03 0.03 0.03 0.04 0.04 0.04 0.03 0.03 0.03 0.03 0.02 0.01 0.01 0.01 0.01 0.00 0.00 0.00 0.00 0.00 0.00 0.00 0.00 0.00 0.00 0.00 0.00 0.00 0.00 0.00 0.00 0.00 0.00 0.00 0.00 0.00 0.00 0.00 0.00
0.09 0.07 0.05 0.03 0.02 0.02 0.02 0.03 0.03 0.02 0.02 0.02 0.02 0.02 0.03 0.02 0.01 0.00 0.00 0.00 0.00 0.00 0.00 0.00 0.00 0.00 0.00 0.00 0.00 0.00 0.00 0.00 0.00 0.00 0.00 0.00 0.00 0.00 0.00 0.00 0.00 0.00 0.00
0.10 0.08 0.06 0.04 0.03 0.02 0.02 0.01 0.01 0.01 0.01 0.01 0.01 0.01 0.01 0.01 0.01 0.00 0.00 0.00 0.00 0.00 0.00 0.00 0.00 0.00 0.00 0.00 0.00 0.00 0.00 0.00 0.00 0.00 0.00 0.00 0.00 0.00 0.00 0.00 0.00 0.00 0.00
0.12 0.09 0.07 0.04 0.02 0.01 0.01 0.01 0.01 0.01 0.01 0.01 0.01 0.01 0.01 0.01 0.00 0.00 0.00 0.00 0.00 0.00 0.00 0.00 0.00 0.00 0.00 0.00 0.00 0.00 0.00 0.00 0.00 0.00 0.00 0.00 0.00 0.00 0.00 0.00 0.00 0.00 0.00
0.09 0.06 0.04 0.02 0.01 0.00 0.00 0.01 0.01 0.02 0.02 0.01 0.01 0.01 0.01 0.00 0.00 0.00 0.00 0.00 0.00 0.00 0.00 0.00 0.00 0.00 0.00 0.00 0.00 0.00 0.00 0.00 0.00 0.00 0.00 0.00 0.00 0.00 0.00 0.00 0.00 0.00 0.01
0.07 0.04 0.02 0.01 0.01 0.01 0.01 0.01 0.01 0.01 0.01 0.01 0.01 0.01 0.00 0.00 0.00 0.00 0.00 0.00 0.00 0.00 0.00 0.00 0.00 0.00 0.00 0.00 0.00 0.00 0.00 0.00 0.00 0.00 0.00 0.00 0.00 0.00 0.00 0.00 0.01 0.01 0.01
0.04 0.03 0.01 0.01 0.01 0.01 0.00 0.00 0.00 0.01 0.01 0.01 0.01 0.00 0.00 0.00 0.00 0.00 0.00 0.00 0.00 0.00 0.00 0.00 0.00 0.00 0.00 0.00 0.00 0.00 0.00 0.00 0.00 0.00 0.00 0.00 0.00 0.00 0.00 0.00 0.01 0.01 0.02
0.03 0.01 0.01 0.00 0.00 0.00 0.00 0.00 0.00 0.00 0.00 0.00 0.00 0.00 0.00 0.00 0.00 0.00 0.00 0.00 0.00 0.00 0.00 0.00 0.00 0.00 0.00 0.00 0.00 0.00 0.00 0.00 0.00 0.00 0.00 0.00 0.00 0.00 0.00 0.01 0.01 0.01 0.01
0.02 0.01 0.00 0.00 0.00 0.00 0.00 0.00 0.00 0.00 0.00 0.00 0.00 0.00 0.00 0.00 0.00 0.00 0.00 0.00 0.00 0.00 0.00 0.00 0.00 0.00 0.00 0.00 0.00 0.00 0.00 0.00 0.00 0.00 0.00 0.00 0.00 0.00 0.01 0.01 0.01 0.01 0.01
0.00 0.00 0.00 0.00 0.00 0.00 0.00 0.00 0.00 0.00 0.00 0.00 0.00 0.00 0.00 0.00 0.00 0.00 0.00 0.00 0.00 0.00 0.00 0.00 0.00 0.00 0.00 0.00 0.00 0.00 0.00 0.00 0.00 0.00 0.00 0.00 0.00 0.00 0.01 0.01 0.01 0.01 0.02
0.00 0.00 0.00 0.00 0.00 0.00 0.00 0.00 0.00 0.00 0.00 0.00 0.00 0.00 0.00 0.00 0.00 0.00 0.00 0.00 0.00 0.00 0.00 0.00 0.00 0.00 0.00 0.00 0.00 0.00 0.00 0.00 0.00 0.00 0.00 0.00 0.00 0.00 0.01 0.01 0.01 0.02 0.02
0.00 0.00 0.00 0.00 0.00 0.00 0.00 0.00 0.00 0.00 0.00 0.00 0.00 0.00 0.00 0.00 0.00 0.00 0.00 0.00 0.00 0.00 0.00 0.00 0.00 0.00 0.00 0.00 0.00 0.00 0.00 0.00 0.00 0.00 0.00 0.00 0.00 0.01 0.01 0.01 0.01 0.01 0.01
0.00 0.00 0.00 0.00 0.00 0.00 0.00 0.00 0.00 0.00 0.00 0.00 0.00 0.00 0.00 0.00 0.00 0.00 0.00 0.00 0.00 0.00 0.00 0.00 0.00 0.00 0.00 0.00 0.00 0.00 0.00 0.00 0.00 0.00 0.00 0.00 0.00 0.00 0.00 0.00 0.00 0.00 0.00
0.00 0.00 0.00 0.00 0.00 0.00 0.00 0.00 0.00 0.00 0.00 0.00 0.00 0.00 0.00 0.00 0.00 0.00 0.00 0.00 0.00 0.00 0.00 0.00 0.00 0.00 0.00 0.00 0.00 0.00 0.00 0.00 0.00 0.00 0.00 0.00 0.00 0.00 0.00 0.00 0.00 0.01 0.00
0.00 0.00 0.00 0.00 0.00 0.00 0.00 0.00 0.00 0.00 0.00 0.00 0.00 0.00 0.00 0.00 0.00 0.00 0.00 0.00 0.00 0.00 0.00 0.00 0.00 0.00 0.00 0.00 0.00 0.01 0.01 0.01 0.00 0.00 0.00 0.00 0.00 0.00 0.00 0.00 0.00 0.01 0.01
0.00 0.00 0.00 0.00 0.00 0.00 0.00 0.00 0.00 0.00 0.00 0.00 0.00 0.00 0.00 0.00 0.00 0.00 0.00 0.00 0.00 0.00 0.00 0.00 0.00 0.00 0.00 0.00 0.01 0.01 0.02 0.02 0.01 0.00 0.00 0.00 0.00 0.00 0.00 0.00 0.00 0.01 0.00
0.00 0.00 0.00 0.00 0.00 0.00 0.00 0.00 0.00 0.00 0.00 0.00 0.00 0.00 0.00 0.00 0.00 0.00 0.00 0.00 0.00 0.00 0.00 0.01 0.01 0.01 0.01 0.01 0.02 0.02 0.02 0.02 0.01 0.00 0.00 0.00 0.00 0.00 0.00 0.00 0.00 0.00 0.00
0.00 0.00 0.00 0.00 0.00 0.00 0.00 0.00 0.00 0.00 0.00 0.00 0.00 0.00 0.00 0.00 0.00 0.00 0.00 0.00 0.00 0.00 0.00 0.00 0.01 0.01 0.01 0.01 0.02 0.02 0.02 0.01 0.01 0.00 0.01 0.01 0.00 0.00 0.00 0.00 0.00 0.00 0.00
0.00 0.00 0.00 0.00 0.00 0.00 0.00 0.00 0.00 0.00 0.00 0.00 0.00 0.00 0.00 0.00 0.00 0.00 0.00 0.00 0.00 0.00 0.00 0.00 0.00 0.00 0.01 0.01 0.02 0.02 0.01 0.02 0.02 0.01 0.00 0.01 0.01 0.00 0.00 0.00 0.00 0.00 0.00
0.00 0.00 0.00 0.00 0.00 0.00 0.00 0.00 0.00 0.00 0.00 0.00 0.00 0.00 0.00 0.00 0.00 0.00 0.00 0.00 0.00 0.00 0.00 0.00 0.00 0.00 0.01 0.01 0.01 0.01 0.01 0.02 0.02 0.02 0.02 0.02 0.02 0.02 0.01 0.00 0.00 0.00 0.00
MSLP
1016.36 1016.53 1016.67 1016.80 1016.96 1017.14 1017.34 1017.56 1017.76 1017.95 1018.09 1018.19 1018.26 1018.31 1018.37 1018.45 1018.58 1018.75 1018.96 1019.20 1019.44 1019.67 1019.88 1020.07 1020.25 1020.41 1020.56 1020.72 1020.87 1021.01 1021.13 1021.23 1021.29 1021.33 1021.35 1021.36 1021.38 1021.41 1021.45 1021.50 1021.55 1021.58 1021.58
1016.04 1016.22 1016.41 1016.61 1016.85 1017.11 1017.40 1017.68 1017.95 1018.18 1018.35 1018.47 1018.54 1018.60 1018.65 1018.73 1018.85 1019.02 1019.23 1019.46 1019.71 1019.95 1020.18 1020.38 1020.57 1020.73 1020.87 1021.01 1021.13 1021.24 1021.33 1021.39 1021.44 1021.47 1021.50 1021.52 1021.56 1021.60 1021.65 1021.70 1021.73 1021.73 1021.70
1015.75 1015.97 1016.21 1016.48 1016.80 1017.16 1017.52 1017.88 1018.21 1018.47 1018.67 1018.81 1018.89 1018.95 1019.01 1019.09 1019.20 1019.35 1019.55 1019.77 1020.01 1020.24 1020.46 1020.66 1020.84 1020.99 1021.11 1021.22 1021.31 1021.39 1021.44 1021.49 1021.53 1021.56 1021.60 1021.66 1021.72 1021.79 1021.86 1021.91 1021.94 1021.92 1021.86
1015.57 1015.82 1016.12 1016.47 1016.86 1017.29 1017.73 1018.14 1018.50 1018.79 1019.01 1019.15 1019.24 1019.31 1019.36 1019.43 1019.54 1019.68 1019.85 1020.05 1020.26 1020.47 1020.66 1020.84 1020.99 1021.12 1021.22 1021.30 1021.36 1021.41 1021.44 1021.48 1021.52 1021.57 1021.63 1021.72 1021.82 1021.92 1022.01 1022.08 1022.11 1022.08 1022.00
1015.56 1015.84 1016.19 1016.59 1017.04 1017.52 1017.99 1018.42 1018.80 1019.09 1019.30 1019.45 1019.54 1019.60 1019.65 1019.72 1019.81 1019.93 1020.08 1020.24 1020.42 1020.59 1020.74 1020.89 1021.01 1021.10 1021.18 1021.23 1021.27 1021.30 1021.33 1021.37 1021.41 1021.48 1021.57 1021.69 1021.82 1021.95 1022.07 1022.15 1022.18 1022.14 1022.04
1015.74 1016.05 1016.43 1016.86 1017.34 1017.82 1018.30 1018.72 1019.07 1019.34 1019.54 1019.67 1019.75 1019.81 1019.86 1019.93 1020.01 1020.11 1020.23 1020.35 1020.48 1020.60 1020.72 1020.82 1020.91 1020.98 1021.04 1021.08 1021.10 1021.13 1021.16 1021.19 1021.25 1021.34 1021.45 1021.58 1021.73 1021.87 1022.00 1022.08 1022.10 1022.06 1021.94
1016.12 1016.45 1016.83 1017.26 1017.73 1018.19 1018.62 1019.00 1019.31 1019.54 1019.71 1019.82 1019.90 1019.96 1020.02 1020.09 1020.16 1020.25 1020.34 1020.42 1020.51 1020.58 1020.66 1020.72 1020.78 1020.83 1020.87 1020.90 1020.93 1020.96 1020.99 1021.03 1021.09 1021.18 1021.29 1021.43 1021.57 1021.70 1021.81 1021.88 1021.88 1021.82 1021.69
1016.65 1016.98 1017.35 1017.76 1018.18 1018.59 1018.96 1019.28 1019.53 1019.71 1019.85 1019.95 1020.03 1020.10 1020.18 1020.26 1020.34 1020.41 1020.48 1020.53 1020.58 1020.62 1020.65 1020.68 1020.71 1020.75 1020.78 1020.81 1020.84 1020.86 1020.89 1020.93 1020.98 1021.06 1021.15 1021.26 1021.37 1021.47 1021.54 1021.56 1021.53 1021.44 1021.29
1017.27 1017.58 1017.93 1018.30 1018.66 1019.01 1019.31 1019.56 1019.75 1019.90 1020.01 1020.11 1020.21 1020.31 1020.42 1020.52 1020.61 1020.69 1020.74 1020.77 1020.78 1020.78 1020.78 1020.78 1020.80 1020.82 1020.84 1020.86 1020.88 1020.90 1020.91 1020.93 1020.96 1021.00 1021.05 1021.10 1021.15 1021.19 1021.19 1021.16 1021.08 1020.95 1020.78
1017.90 1018.21 1018.52 1018.84 1019.14 1019.42 1019.66 1019.85 1020.00 1020.13 1020.24 1020.36 1020.50 1020.64 1020.78 1020.92 1021.03 1021.11 1021.16 1021.17 1021.16 1021.13 1021.10 1021.08 1021.07 1021.06 1021.07 1021.07 1021.07 1021.06 1021.04 1021.02 1021.00 1020.98 1020.97 1020.95 1020.93 1020.88 1020.81 1020.70 1020.56 1020.38 1020.18
1018.51 1018.80 1019.08 1019.36 1019.61 1019.83 1020.02 1020.18 1020.31 1020.44 1020.58 1020.73 1020.90 1021.09 1021.28 1021.46 1021.59 1021.69 1021.73 1021.74 1021.70 1021.66 1021.60 1021.55 1021.50 1021.47 1021.44 1021.40 1021.35 1021.29 1021.22 1021.14 1021.06 1020.97 1020.88 1020.78 1020.67 1020.54 1020.39 1020.20 1019.99 1019.77 1019.54
1019.07 1019.34 1019.60 1019.85 1020.06 1020.26 1020.42 1020.56 1020.70 1020.84 1021.00 1021.20 1021.42 1021.65 1021.88 1022.09 1022.25 1022.35 1022.40 1022.40 1022.36 1022.29 1022.21 1022.12 1022.04 1021.96 1021.87 1021.77 1021.66 1021.53 1021.38 1021.22 1021.06 1020.90 1020.73 1020.55 1020.37 1020.16 1019.93 1019.67 1019.40 1019.13 1018.86
1019.59 1019.86 1020.10 1020.33 1020.53 1020.71 1020.86 1021.01 1021.15 1021.32 1021.51 1021.74 1021.99 1022.25 1022.51 1022.73 1022.91 1023.02 1023.07 1023.07 1023.02 1022.94 1022.83 1022.72 1022.59 1022.45 1022.29 1022.11 1021.90 1021.68 1021.44 1021.19 1020.95 1020.71 1020.47 1020.23 1019.98 1019.71 1019.42 1019.10 1018.78 1018.46 1018.15
1020.11 1020.38 1020.62 1020.84 1021.04 1021.22 1021.38 1021.53 1021.68 1021.86 1022.06 1022.30 1022.56 1022.82 1023.08 1023.30 1023.48 1023.60 1023.65 1023.65 1023.60 1023.51 1023.39 1023.24 1023.06 1022.85 1022.61 1022.33 1022.02 1021.69 1021.35 1021.01 1020.68 1020.38 1020.08 1019.79 1019.49 1019.18 1018.85 1018.50 1018.13 1017.77 1017.42
1020.68 1020.95 1021.20 1021.43 1021.64 1021.81 1021.97 1022.12 1022.26 1022.43 1022.62 1022.83 1023.06 1023.30 1023.54 1023.74 1023.90 1024.00 1024.06 1024.06 1024.02 1023.93 1023.80 1023.62 1023.40 1023.12 1022.79 1022.41 1021.99 1021.55 1021.10 1020.67 1020.27 1019.90 1019.56 1019.24 1018.92 1018.59 1018.23 1017.85 1017.45 1017.05 1016.68
1021.32 1021.61 1021.87 1022.11 1022.32 1022.50 1022.64 1022.77 1022.89 1023.01 1023.15 1023.31 1023.48 1023.66 1023.84 1023.99 1024.12 1024.22 1024.27 1024.28 1024.25 1024.17 1024.04 1023.84 1023.57 1023.23 1022.82 1022.34 1021.81 1021.26 1020.72 1020.21 1019.74 1019.33 1018.96 1018.62 1018.29 1017.94 1017.58 1017.18 1016.76 1016.33 1015.91
1022.06 1022.36 1022.64 1022.90 1023.10 1023.26 1023.38 1023.46 1023.52 1023.58 1023.64 1023.71 1023.80 1023.89 1023.99 1024.09 1024.18 1024.24 1024.29 1024.31 1024.30 1024.23 1024.10 1023.89 1023.59 1023.19 1022.71 1022.14 1021.53 1020.89 1020.27 1019.69 1019.16 1018.71 1018.32 1017.97 1017.63 1017.29 1016.91 1016.50 1016.06 1015.60 1015.15
1022.86 1023.18 1023.48 1023.73 1023.92 1024.05 1024.13 1024.15 1024.14 1024.11 1024.08 1024.05 1024.03 1024.03 1024.05 1024.07 1024.11 1024.15 1024.18 1024.20 1024.20 1024.14 1024.01 1023.80 1023.48 1023.04 1022.50 1021.87 1021.18 1020.48 1019.79 1019.15 1018.59 1018.11 1017.70 1017.34 1016.99 1016.64 1016.26 1015.83 1015.37 1014.88 1014.40
1023.68 1024.01 1024.30 1024.54 1024.71 1024.81 1024.83 1024.79 1024.70 1024.59 1024.46 1024.33 1024.22 1024.12 1024.05 1024.01 1023.98 1023.98 1024.00 1024.01 1024.00 1023.94 1023.81 1023.59 1023.25 1022.79 1022.21 1021.54 1020.81 1020.06 1019.33 1018.66 1018.07 1017.56 1017.13 1016.76 1016.40 1016.04 1015.64 1015.19 1014.70 1014.18 1013.67
1024.43 1024.76 1025.04 1025.25 1025.39 1025.45 1025.42 1025.33 1025.18 1024.99 1024.78 1024.58 1024.38 1024.20 1024.05 1023.94 1023.86 1023.81 1023.78 1023.76 1023.72 1023.65 1023.50 1023.27 1022.91 1022.44 1021.84 1021.16 1020.41 1019.64 1018.90 1018.21 1017.60 1017.08 1016.63 1016.24 1015.86 1015.48 1015.05 1014.58 1014.06 1013.52 1012.98
1025.05 1025.36 1025.61 1025.80 1025.90 1025.92 1025.85 1025.72 1025.52 1025.29 1025.04 1024.78 1024.52 1024.29 1024.08 1023.90 1023.75 1023.64 1023.55 1023.47 1023.39 1023.27 1023.10 1022.83 1022.47 1021.98 1021.39 1020.71 1019.98 1019.22 1018.48 1017.80 1017.19 1016.66 1016.20 1015.78 1015.37 1014.96 1014.50 1014.00 1013.45 1012.89 1012.32
1025.50 1025.77 1025.99 1026.14 1026.20 1026.19 1026.10 1025.94 1025.73 1025.48 1025.21 1024.94 1024.66 1024.38 1024.13 1023.89 1023.67 1023.48 1023.31 1023.15 1022.99 1022.81 1022.58 1022.29 1021.90 1021.42 1020.85 1020.20 1019.50 1018.78 1018.08 1017.42 1016.82 1016.29 1015.81 1015.36 1014.93 1014.47 1013.98 1013.45 1012.88 1012.29 1011.72
1025.77 1025.99 1026.17 1026.27 1026.31 1026.27 1026.17 1026.01 1025.81 1025.58 1025.32 1025.05 1024.77 1024.47 1024.18 1023.88 1023.59 1023.31 1023.04 1022.78 1022.53 1022.26 1021.97 1021.63 1021.23 1020.76 1020.22 1019.62 1018.98 1018.33 1017.68 1017.06 1016.48 1015.95 1015.46 1014.99 1014.52 1014.03 1013.50 1012.93 1012.34 1011.74 1011.15
1025.90 1026.07 1026.19 1026.26 1026.26 1026.21 1026.10 1025.96 1025.79 1025.59 1025.36 1025.11 1024.84 1024.54 1024.21 1023.86 1023.49 1023.11 1022.73 1022.36 1021.99 1021.64 1021.28 1020.90 1020.49 1020.04 1019.55 1019.02 1018.46 1017.87 1017.29 1016.73 1016.18 1015.66 1015.16 1014.66 1014.15 1013.62 1013.06 1012.46 1011.84 1011.22 1010.64
1025.96 1026.07 1026.14 1026.17 1026.15 1026.08 1025.98 1025.86 1025.71 1025.55 1025.36 1025.13 1024.87 1024.56 1024.19 1023.78 1023.33 1022.85 1022.36 1021.88 1021.42 1020.97 1020.55 1020.14 1019.74 1019.32 1018.89 1018.44 1017.96 1017.46 1016.96 1016.45 1015.94 1015.43 1014.91 1014.39 1013.84 1013.27 1012.67 1012.04 1011.40 1010.77 1010.18
1026.02 1026.08 1026.11 1026.10 1026.05 1025.98 1025.88 1025.77 1025.64 1025.49 1025.32 1025.11 1024.84 1024.51 1024.11 1023.64 1023.11 1022.54 1021.96 1021.38 1020.83 1020.32 1019.86 1019.44 1019.05 1018.68 1018.31 1017.94 1017.55 1017.14 1016.71 1016.25 1015.77 1015.26 1014.74 1014.18 1013.60 1012.99 1012.35 1011.69 1011.03 1010.39 1009.79
Thickness
5750 5747 5744 5741 5737 5732 5728 5725 5721 5718 5715 5714 5713 5712 5710 5708 5705 5703 5700 5697 5695 5693 5691 5689 5688 5686 5685 5684 5682 5680 5678 5677 5675 5674 5672 5671 5670 5669 5668 5668 5667 5667 5667
5750 5747 5742 5737 5733 5729 5725 5721 5717 5713 5710 5707 5706 5705 5703 5701 5699 5696 5694 5691 5689 5687 5685 5683 5681 5679 5677 5676 5674 5672 5670 5669 5667 5666 5664 5663 5662 5661 5660 5659 5659 5659 5659
5748 5744 5739 5734 5730 5726 5722 5718 5713 5708 5704 5701 5698 5697 5695 5693 5691 5688 5686 5684 5682 5679 5677 5675 5673 5670 5669 5667 5665 5663 5662 5660 5658 5657 5655 5654 5653 5652 5651 5650 5649 5649 5649
5745 5740 5735 5730 5726 5722 5717 5713 5708 5702 5697 5693 5689 5688 5686 5683 5682 5680 5677 5675 5673 5671 5669 5666 5664 5662 5660 5657 5655 5654 5652 5650 5649 5647 5645 5644 5643 5641 5640 5639 5638 5638 5638
5739 5735 5730 5725 5721 5716 5711 5707 5702 5697 5691 5687 5684 5681 5679 5676 5674 5672 5669 5667 5665 5663 5661 5659 5656 5654 5651 5649 5646 5644 5642 5640 5639 5637 5635 5633 5632 5630 5628 5627 5626 5626 5626
5732 5727 5723 5718 5714 5709 5704 5700 5695 5691 5686 5682 5680 5675 5673 5670 5668 5665 5662 5659 5657 5655 5653 5651 5648 5645 5642 5640 5637 5636 5633 5631 5629 5627 5624 5622 5620 5618 5615 5614 5613 5612 5612
5723 5719 5714 5710 5707 5702 5698 5694 5689 5684 5679 5677 5673 5668 5666 5664 5661 5658 5656 5652 5649 5647 5645 5642 5640 5637 5634 5631 5629 5627 5624 5621 5619 5617 5614 5611 5608 5605 5602 5600 5599 5598 5598
5714 5711 5706 5702 5698 5694 5690 5687 5683 5677 5672 5669 5666 5660 5655 5654 5653 5652 5649 5645 5642 5639 5636 5633 5631 5628 5625 5622 5620 5617 5615 5612 5609 5606 5602 5599 5595 5591 5589 5587 5585 5584 5583
5703 5700 5697 5693 5689 5686 5682 5678 5676 5672 5665 5662 5659 5655 5649 5645 5642 5641 5639 5636 5634 5630 5627 5624 5621 5618 5615 5612 5610 5607 5604 5601 5597 5593 5589 5585 5581 5577 5574 5572 5570 5568 5567
5692 5689 5686 5683 5679 5676 5672 5669 5667 5663 5659 5654 5651 5648 5644 5640 5634 5629 5627 5625 5623 5619 5615 5612 5609 5606 5604 5601 5597 5594 5590 5587 5582 5578 5573 5569 5565 5562 5559 5556 5554 5552 5552
5680 5678 5675 5673 5669 5665 5662 5659 5656 5653 5650 5645 5641 5637 5634 5629 5624 5619 5614 5611 5609 5606 5602 5598 5595 5592 5589 5586 5581 5577 5573 5569 5564 5559 5555 5550 5547 5544 5542 5539 5537 5536 5535
5669 5666 5663 5661 5657 5654 5651 5647 5644 5641 5637 5633 5629 5625 5621 5616 5611 5607 5601 5596 5592 5590 5588 5583 5579 5575 5572 5567 5563 5558 5553 5549 5544 5539 5535 5532 5528 5526 5524 5522 5521 5520 5519
5656 5653 5651 5648 5645 5642 5638 5634 5630 5626 5623 5619 5615 5610 5606 5601 5597 5592 5586 5580 5576 5573 5571 5567 5561 5557 5553 5548 5543 5539 5534 5529 5525 5521 5517 5514 5511 5509 5507 5505 5504 5503 5502
5645 5641 5639 5636 5632 5628 5624 5620 5616 5612 5608 5604 5600 5595 5590 5585 5582 5577 5571 5565 5558 5553 5551 5548 5544 5539 5534 5529 5524 5520 5516 5511 5508 5504 5501 5498 5496 5493 5492 5490 5489 5487 5486
5633 5629 5626 5622 5617 5613 5609 5605 5601 5596 5592 5588 5583 5579 5574 5569 5565 5560 5555 5550 5542 5535 5530 5528 5523 5521 5516 5512 5508 5504 5500 5496 5493 5490 5487 5484 5482 5479 5478 5476 5474 5473 5472
5619 5615 5611 5607 5602 5598 5594 5590 5584 5580 5575 5570 5566 5561 5556 5552 5548 5544 5538 5533 5527 5520 5514 5511 5507 5504 5500 5496 5493 5489 5486 5482 5479 5476 5473 5471 5469 5466 5464 5463 5462 5461 5460
5604 5600 5596 5591 5586 5581 5576 5572 5567 5562 5557 5553 5549 5545 5540 5536 5531 5526 5522 5516 5510 5505 5499 5496 5492 5489 5485 5482 5479 5476 5472 5469 5466 5462 5460 5458 5457 5455 5453 5452 5451 5450 5450
5589 5585 5579 5574 5568 5562 5557 5553 5548 5544 5540 5535 5532 5528 5524 5521 5515 5510 5505 5500 5495 5490 5485 5481 5478 5474 5471 5468 5466 5462 5459 5456 5453 5451 5449 5448 5447 5446 5445 5444 5443 5442 5442
5572 5567 5561 5554 5548 5543 5538 5534 5530 5526 5522 5518 5515 5512 5508 5504 5499 5495 5491 5485 5480 5477 5471 5467 5465 5461 5459 5456 5454 5451 5449 5446 5443 5442 5441 5440 5439 5439 5438 5437 5437 5436 5437
5554 5548 5541 5535 5530 5525 5520 5516 5512 5507 5504 5501 5499 5496 5493 5489 5485 5481 5477 5472 5467 5463 5458 5455 5453 5450 5448 5447 5443 5441 5441 5439 5436 5434 5434 5433 5432 5432 5431 5431 5431 5432 5432
5535 5529 5523 5517 5512 5507 5502 5498 5494 5490 5486 5484 5482 5480 5478 5476 5473 5468 5465 5460 5455 5450 5446 5444 5443 5442 5441 5438 5435 5433 5433 5433 5432 5430 5428 5427 5426 5426 5426 5426 5426 5427 5427
5517 5511 5506 5500 5496 5491 5486 5482 5478 5473 5470 5467 5465 5464 5463 5461 5459 5456 5453 5450 5446 5442 5439 5436 5436 5435 5435 5432 5431 5429 5428 5428 5428 5425 5422 5423 5422 5422 5422 5422 5422 5422 5422
5500 5494 5488 5484 5478 5474 5470 5466 5462 5458 5454 5452 5450 5449 5448 5448 5446 5443 5440 5438 5436 5435 5434 5431 5430 5430 5430 5429 5427 5427 5425 5421 5420 5420 5418 5420 5420 5419 5419 5419 5419 5418 5418
5484 5478 5473 5467 5462 5458 5454 5450 5446 5443 5440 5437 5436 5435 5434 5433 5434 5432 5430 5428 5428 5429 5429 5428 5428 5428 5428 5427 5424 5422 5420 5419 5418 5418 5416 5416 5417 5416 5417 5416 5415 5415 5414
5468 5463 5458 5453 5448 5443 5439 5435 5432 5427 5424 5423 5423 5423 5422 5422 5423 5423 5422 5421 5423 5427 5429 5429 5429 5429 5428 5427 5424 5421 5419 5417 5418 5418 5416 5414 5415 5414 5413 5413 5413 5411 5410
5454 5449 5444 5439 5435 5430 5426 5422 5418 5413 5411 5410 5412 5412 5413 5414 5415 5416 5416 5417 5419 5424 5426 5428 5429 5429 5428 5427 5425 5422 5418 5416 5416 5417 5417 5413 5413 5411 5413 5411 5409 5408 5407